Tracking 22836 objects as of 16-Apr-2021
HD Live streaming from Space Station
objects crossing your sky now

STARLINK-1410

Track STARLINK-1410 now!
10-day predictions
STARLINK-1410 is classified as:


NORAD ID: 45705
Int'l Code: 2020-035BA
Perigee: 553.8 km
Apogee: 555.0 km
Inclination: 53.1 °
Period: 95.6 minutes
Semi major axis: 6925 km
RCS: Unknown
Launch date: June 4, 2020
Source: United States (US)
Launch site: AIR FORCE EASTERN TEST RANGE (AFETR)
aabbcc
Your satellite tracking list
Your tracking list is empty




NASA's NSSDC Master Catalog

Two Line Element Set (TLE):
1 45705U 20035BA  21105.59424957  .00000656  00000-0  62943-4 0  9990
2 45705  53.0567 178.1640 0000854 139.1571 220.9482 15.06392282 49064
Source of the keplerian elements: AFSPC